Time,TemperatureF,DewpointF,PressureIn,WindDirection,WindDirectionDegrees,WindSpeedMPH,WindSpeedGustMPH,Humidity,HourlyPrecipIn,Conditions,Clouds,dailyrainin,SoftwareType,DateUTC
2013-06-27 00:00:00,60.8,58.2,30.03,West,263,0.0,0.0,91,0.00,,,0.00,Wunderground v.1.15,2013-06-27 07:00:00,
2013-06-27 00:10:00,60.6,58.0,30.03,West,263,0.0,0.0,91,0.00,,,0.00,Wunderground v.1.15,2013-06-27 07:10:00,
2013-06-27 00:20:00,60.2,57.9,30.03,West,263,0.0,0.0,92,0.00,,,0.00,Wunderground v.1.15,2013-06-27 07:20:00,
2013-06-27 00:30:00,60.3,58.3,30.03,West,263,0.0,0.0,93,0.00,,,0.00,Wunderground v.1.15,2013-06-27 07:30:00,
2013-06-27 00:35:00,60.6,58.9,30.03,SSW,198,0.0,0.0,94,0.00,,,0.00,Wunderground v.1.15,2013-06-27 07:35:00,
2013-06-27 00:45:00,60.9,59.2,30.03,SSW,196,0.0,0.0,94,0.00,,,0.00,Wunderground v.1.15,2013-06-27 07:45:00,
2013-06-27 00:55:00,61.2,59.5,30.03,SSW,196,0.0,0.0,94,0.00,,,0.00,Wunderground v.1.15,2013-06-27 07:55:00,
2013-06-27 01:05:00,61.3,59.6,30.03,SSW,196,0.0,0.0,94,0.00,,,0.00,Wunderground v.1.15,2013-06-27 08:05:00,
2013-06-27 01:10:00,61.4,59.7,30.03,SSW,196,0.0,0.0,94,0.00,,,0.00,Wunderground v.1.15,2013-06-27 08:10:00,
2013-06-27 01:20:00,61.3,59.6,30.03,SSW,196,0.0,0.0,94,0.00,,,0.00,Wunderground v.1.15,2013-06-27 08:20:00,
2013-06-27 01:25:00,61.3,59.6,30.03,SSW,196,0.0,0.0,94,0.00,,,0.00,Wunderground v.1.15,2013-06-27 08:25:00,
2013-06-27 01:35:00,61.3,59.6,30.03,SSW,196,0.0,0.0,94,0.00,,,0.00,Wunderground v.1.15,2013-06-27 08:35:00,
2013-06-27 01:45:00,61.3,59.6,30.03,SSW,196,0.0,0.0,94,0.00,,,0.00,Wunderground v.1.15,2013-06-27 08:45:00,
2013-06-27 01:55:00,61.3,59.6,30.03,SSW,196,0.0,0.0,94,0.00,,,0.00,Wunderground v.1.15,2013-06-27 08:55:00,
2013-06-27 02:00:00,61.3,59.6,30.03,SSW,193,0.0,0.0,94,0.00,,,0.00,Wunderground v.1.15,2013-06-27 09:00:00,
2013-06-27 02:10:00,61.2,59.5,30.03,SSW,193,0.0,0.0,94,0.00,,,0.00,Wunderground v.1.15,2013-06-27 09:10:00,
2013-06-27 02:20:00,61.1,59.4,30.03,South,186,0.0,0.0,94,0.00,,,0.00,Wunderground v.1.15,2013-06-27 09:20:00,
2013-06-27 02:25:00,60.9,59.2,30.03,South,186,0.0,0.0,94,0.00,,,0.00,Wunderground v.1.15,2013-06-27 09:25:00,
2013-06-27 02:35:00,60.7,59.0,30.03,South,186,0.0,0.0,94,0.00,,,0.00,Wunderground v.1.15,2013-06-27 09:35:00,
2013-06-27 02:40:00,60.5,58.5,30.03,South,186,0.0,0.0,93,0.00,,,0.00,Wunderground v.1.15,2013-06-27 09:40:00,
2013-06-27 02:45:00,60.3,58.3,30.03,South,186,0.0,0.0,93,0.00,,,0.00,Wunderground v.1.15,2013-06-27 09:45:00,
2013-06-27 02:50:00,60.1,58.1,30.03,South,186,0.0,0.0,93,0.00,,,0.00,Wunderground v.1.15,2013-06-27 09:50:00,
2013-06-27 03:00:00,59.6,57.6,30.03,South,186,0.0,0.0,93,0.00,,,0.00,Wunderground v.1.15,2013-06-27 10:00:00,
2013-06-27 03:05:00,59.3,57.3,30.03,South,186,0.0,0.0,93,0.00,,,0.00,Wunderground v.1.15,2013-06-27 10:05:00,
2013-06-27 03:15:00,58.8,56.8,30.03,South,186,0.0,0.0,93,0.00,,,0.00,Wunderground v.1.15,2013-06-27 10:15:00,
2013-06-27 03:25:00,58.3,56.3,30.02,South,186,0.0,0.0,93,0.00,,,0.00,Wunderground v.1.15,2013-06-27 10:25:00,
2013-06-27 03:35:00,58.0,56.0,30.02,South,186,0.0,0.0,93,0.00,,,0.00,Wunderground v.1.15,2013-06-27 10:35:00,
2013-06-27 03:45:00,57.8,56.1,30.02,South,186,0.0,0.0,94,0.00,,,0.00,Wunderground v.1.15,2013-06-27 10:45:00,
2013-06-27 03:55:00,57.7,56.0,30.02,South,186,0.0,0.0,94,0.00,,,0.00,Wunderground v.1.15,2013-06-27 10:55:00,
2013-06-27 04:00:00,57.7,56.0,30.02,South,186,0.0,0.0,94,0.00,,,0.00,Wunderground v.1.15,2013-06-27 11:00:00,
2013-06-27 04:05:00,57.6,55.9,30.02,South,186,0.0,0.0,94,0.00,,,0.00,Wunderground v.1.15,2013-06-27 11:05:00,
2013-06-27 04:10:00,57.6,55.9,30.02,South,186,0.0,0.0,94,0.00,,,0.00,Wunderground v.1.15,2013-06-27 11:10:00,
2013-06-27 04:15:00,57.5,55.8,30.02,South,186,0.0,0.0,94,0.00,,,0.00,Wunderground v.1.15,2013-06-27 11:15:00,
2013-06-27 04:25:00,57.6,56.2,30.02,South,186,0.0,0.0,95,0.00,,,0.00,Wunderground v.1.15,2013-06-27 11:25:00,
2013-06-27 04:30:00,57.6,56.2,30.02,South,186,0.0,0.0,95,0.00,,,0.00,Wunderground v.1.15,2013-06-27 11:30:00,
2013-06-27 04:40:00,57.5,56.1,30.02,South,186,0.0,0.0,95,0.00,,,0.00,Wunderground v.1.15,2013-06-27 11:40:00,
2013-06-27 04:50:00,57.3,55.9,30.02,South,186,0.0,0.0,95,0.00,,,0.00,Wunderground v.1.15,2013-06-27 11:50:00,
2013-06-27 04:55:00,57.3,55.9,30.02,South,186,0.0,0.0,95,0.00,,,0.00,Wunderground v.1.15,2013-06-27 11:55:00,
2013-06-27 05:00:00,57.5,56.1,30.02,South,186,0.0,0.0,95,0.00,,,0.00,Wunderground v.1.15,2013-06-27 12:00:00,
2013-06-27 05:05:00,57.5,56.1,30.02,South,186,0.0,0.0,95,0.00,,,0.00,Wunderground v.1.15,2013-06-27 12:05:00,
2013-06-27 05:10:00,57.5,56.1,30.02,South,186,0.0,0.0,95,0.00,,,0.00,Wunderground v.1.15,2013-06-27 12:10:00,
2013-06-27 05:20:00,57.5,56.1,30.02,South,186,0.0,0.0,95,0.00,,,0.00,Wunderground v.1.15,2013-06-27 12:20:00,
2013-06-27 05:30:00,57.5,56.1,30.02,South,187,0.0,0.0,95,0.00,,,0.00,Wunderground v.1.15,2013-06-27 12:30:00,
2013-06-27 05:40:00,57.4,56.0,30.02,South,187,0.0,0.0,95,0.00,,,0.00,Wunderground v.1.15,2013-06-27 12:40:00,
2013-06-27 05:45:00,57.3,55.9,30.02,South,187,0.0,0.0,95,0.00,,,0.00,Wunderground v.1.15,2013-06-27 12:45:00,
2013-06-27 05:50:00,57.3,55.9,30.02,South,187,0.0,0.0,95,0.00,,,0.00,Wunderground v.1.15,2013-06-27 12:50:00,
2013-06-27 06:00:00,57.1,55.7,30.02,South,187,0.0,0.0,95,0.00,,,0.00,Wunderground v.1.15,2013-06-27 13:00:00,
2013-06-27 06:05:00,57.1,55.7,30.02,South,187,0.0,0.0,95,0.00,,,0.00,Wunderground v.1.15,2013-06-27 13:05:00,
2013-06-27 06:15:00,57.1,55.7,30.03,South,187,0.0,0.0,95,0.00,,,0.00,Wunderground v.1.15,2013-06-27 13:15:00,
2013-06-27 06:25:00,57.1,56.0,30.03,South,187,0.0,0.0,96,0.00,,,0.00,Wunderground v.1.15,2013-06-27 13:25:00,
2013-06-27 06:35:00,57.1,56.0,30.03,South,187,0.0,0.0,96,0.00,,,0.00,Wunderground v.1.15,2013-06-27 13:35:00,
2013-06-27 06:40:00,57.1,56.0,30.03,South,187,0.0,0.0,96,0.00,,,0.00,Wunderground v.1.15,2013-06-27 13:40:00,
2013-06-27 06:50:00,57.2,56.1,30.03,South,187,0.0,0.0,96,0.00,,,0.00,Wunderground v.1.15,2013-06-27 13:50:00,
2013-06-27 07:00:00,57.7,56.6,30.03,South,187,0.0,0.0,96,0.00,,,0.00,Wunderground v.1.15,2013-06-27 14:00:00,
2013-06-27 07:05:00,57.9,57.1,30.04,South,187,0.0,0.0,97,0.00,,,0.00,Wunderground v.1.15,2013-06-27 14:05:00,
2013-06-27 07:15:00,58.6,57.8,30.04,South,187,0.0,0.0,97,0.00,,,0.00,Wunderground v.1.15,2013-06-27 14:15:00,
2013-06-27 07:20:00,59.1,58.2,30.04,South,187,0.0,0.0,97,0.00,,,0.00,Wunderground v.1.15,2013-06-27 14:20:00,
2013-06-27 07:30:00,60.0,59.1,30.04,South,187,0.0,0.0,97,0.00,,,0.00,Wunderground v.1.15,2013-06-27 14:30:00,
2013-06-27 07:35:00,60.4,59.5,30.04,South,187,0.0,0.0,97,0.00,,,0.00,Wunderground v.1.15,2013-06-27 14:35:00,
2013-06-27 07:40:00,60.9,60.3,30.04,South,187,0.0,0.0,98,0.00,,,0.00,Wunderground v.1.15,2013-06-27 14:40:00,
2013-06-27 07:50:00,61.8,61.2,30.05,SW,224,1.0,2.0,98,0.00,,,0.00,Wunderground v.1.15,2013-06-27 14:50:00,
2013-06-27 07:55:00,62.2,61.6,30.05,WSW,238,2.0,3.0,98,0.00,,,0.00,Wunderground v.1.15,2013-06-27 14:55:00,
2013-06-27 08:00:00,62.4,61.5,30.05,WSW,240,3.0,3.0,97,0.00,,,0.00,Wunderground v.1.15,2013-06-27 15:00:00,
2013-06-27 08:05:00,62.7,61.5,30.05,WSW,237,3.0,3.0,96,0.00,,,0.00,Wunderground v.1.15,2013-06-27 15:05:00,
2013-06-27 08:15:00,63.4,61.6,30.05,SW,217,2.0,4.0,94,0.00,,,0.00,Wunderground v.1.15,2013-06-27 15:15:00,
2013-06-27 08:25:00,64.3,61.9,30.05,SW,236,3.0,4.0,92,0.00,,,0.00,Wunderground v.1.15,2013-06-27 15:25:00,
2013-06-27 08:30:00,64.7,61.7,30.05,SSW,203,3.0,3.0,90,0.00,,,0.00,Wunderground v.1.15,2013-06-27 15:30:00,
2013-06-27 08:35:00,65.0,61.7,30.05,WSW,238,3.0,4.0,89,0.00,,,0.00,Wunderground v.1.15,2013-06-27 15:35:00,
2013-06-27 08:40:00,65.4,62.1,30.05,SSW,212,3.0,6.0,89,0.00,,,0.00,Wunderground v.1.15,2013-06-27 15:40:00,
2013-06-27 08:50:00,66.2,62.2,30.06,WSW,240,3.0,3.0,87,0.00,,,0.00,Wunderground v.1.15,2013-06-27 15:50:00,
2013-06-27 08:55:00,66.7,62.7,30.06,NW,310,2.0,3.0,87,0.00,,,0.00,Wunderground v.1.15,2013-06-27 15:55:00,
2013-06-27 09:05:00,67.6,62.6,30.06,West,264,1.0,4.0,84,0.00,,,0.00,Wunderground v.1.15,2013-06-27 16:05:00,
2013-06-27 09:15:00,68.3,62.6,30.06,South,181,2.0,4.0,82,0.00,,,0.00,Wunderground v.1.15,2013-06-27 16:15:00,
2013-06-27 09:25:00,69.4,62.6,30.06,SW,221,2.0,4.0,79,0.00,,,0.00,Wunderground v.1.15,2013-06-27 16:25:00,
2013-06-27 09:30:00,69.9,63.1,30.05,West,261,3.0,3.0,79,0.00,,,0.00,Wunderground v.1.15,2013-06-27 16:30:00,
2013-06-27 09:35:00,70.4,62.8,30.05,WNW,294,3.0,4.0,77,0.00,,,0.00,Wunderground v.1.15,2013-06-27 16:35:00,
2013-06-27 09:40:00,70.8,62.9,30.05,WNW,285,2.0,4.0,76,0.00,,,0.00,Wunderground v.1.15,2013-06-27 16:40:00,
2013-06-27 09:45:00,71.2,62.5,30.05,West,268,1.0,4.0,74,0.00,,,0.00,Wunderground v.1.15,2013-06-27 16:45:00,
2013-06-27 09:50:00,71.7,63.0,30.05,West,264,1.0,4.0,74,0.00,,,0.00,Wunderground v.1.15,2013-06-27 16:50:00,
2013-06-27 10:00:00,72.8,62.8,30.05,WNW,294,3.0,4.0,71,0.00,,,0.00,Wunderground v.1.15,2013-06-27 17:00:00,
2013-06-27 10:10:00,73.8,63.0,30.05,WSW,249,2.0,5.0,69,0.00,,,0.00,Wunderground v.1.15,2013-06-27 17:10:00,
2013-06-27 10:20:00,74.2,63.4,30.05,SSW,203,4.0,6.0,69,0.00,,,0.00,Wunderground v.1.15,2013-06-27 17:20:00,
2013-06-27 10:25:00,74.4,63.6,30.05,SW,229,5.0,6.0,69,0.00,,,0.00,Wunderground v.1.15,2013-06-27 17:25:00,
2013-06-27 10:35:00,75.2,63.9,30.05,South,182,4.0,4.0,68,0.00,,,0.00,Wunderground v.1.15,2013-06-27 17:35:00,
2013-06-27 10:45:00,75.8,64.1,30.05,WSW,242,4.0,6.0,67,0.00,,,0.00,Wunderground v.1.15,2013-06-27 17:45:00,
2013-06-27 10:55:00,76.3,64.1,30.05,SSW,198,4.0,6.0,66,0.00,,,0.00,Wunderground v.1.15,2013-06-27 17:55:00,
2013-06-27 11:05:00,76.6,64.4,30.06,West,259,4.0,6.0,66,0.00,,,0.00,Wunderground v.1.15,2013-06-27 18:05:00,
2013-06-27 11:15:00,76.1,64.3,30.06,South,169,5.0,5.0,67,0.00,,,0.00,Wunderground v.1.15,2013-06-27 18:15:00,
2013-06-27 11:25:00,76.7,64.5,30.06,WSW,255,4.0,8.0,66,0.00,,,0.00,Wunderground v.1.15,2013-06-27 18:25:00,
2013-06-27 11:30:00,76.6,64.4,30.06,SW,234,5.0,6.0,66,0.00,,,0.00,Wunderground v.1.15,2013-06-27 18:30:00,
2013-06-27 11:40:00,77.1,64.4,30.06,SW,235,4.0,4.0,65,0.00,,,0.00,Wunderground v.1.15,2013-06-27 18:40:00,
2013-06-27 11:50:00,76.9,64.2,30.06,WSW,245,5.0,5.0,65,0.00,,,0.00,Wunderground v.1.15,2013-06-27 18:50:00,
2013-06-27 11:55:00,77.7,64.1,30.06,WSW,238,4.0,5.0,63,0.00,,,0.00,Wunderground v.1.15,2013-06-27 18:55:00,
2013-06-27 12:00:00,78.0,63.9,30.06,West,269,5.0,5.0,62,0.00,,,0.00,Wunderground v.1.15,2013-06-27 19:00:00,
2013-06-27 12:05:00,78.3,64.2,30.06,SSW,211,5.0,5.0,62,0.00,,,0.00,Wunderground v.1.15,2013-06-27 19:05:00,
2013-06-27 12:15:00,79.0,63.9,30.05,SSW,195,4.0,5.0,60,0.00,,,0.00,Wunderground v.1.15,2013-06-27 19:15:00,
2013-06-27 12:25:00,78.8,63.3,30.05,SW,234,6.0,6.0,59,0.00,,,0.00,Wunderground v.1.15,2013-06-27 19:25:00,
2013-06-27 12:35:00,79.3,63.2,30.05,SSW,204,5.0,10.0,58,0.00,,,0.00,Wunderground v.1.15,2013-06-27 19:35:00,
2013-06-27 12:45:00,79.4,63.3,30.05,South,189,6.0,6.0,58,0.00,,,0.00,Wunderground v.1.15,2013-06-27 19:45:00,
2013-06-27 12:55:00,79.8,63.7,30.05,SW,230,5.0,8.0,58,0.00,,,0.00,Wunderground v.1.15,2013-06-27 19:55:00,
2013-06-27 15:00:00,81.9,63.6,30.03,South,184,6.0,6.0,54,0.00,,,0.00,Wunderground v.1.15,2013-06-27 22:00:00,
2013-06-27 15:10:00,81.9,63.6,30.03,South,188,6.0,11.0,54,0.00,,,0.00,Wunderground v.1.15,2013-06-27 22:10:00,
2013-06-27 15:20:00,81.4,63.2,30.03,SSW,212,7.0,7.0,54,0.00,,,0.00,Wunderground v.1.15,2013-06-27 22:20:00,
2013-06-27 15:30:00,81.7,63.4,30.03,SSW,198,6.0,7.0,54,0.00,,,0.00,Wunderground v.1.15,2013-06-27 22:30:00,
2013-06-27 15:35:00,81.4,63.2,30.03,SW,229,6.0,9.0,54,0.00,,,0.00,Wunderground v.1.15,2013-06-27 22:35:00,
2013-06-27 15:40:00,81.3,62.5,30.03,SW,224,7.0,7.0,53,0.00,,,0.00,Wunderground v.1.15,2013-06-27 22:40:00,
2013-06-27 15:45:00,80.9,62.7,30.03,South,191,7.0,9.0,54,0.00,,,0.00,Wunderground v.1.15,2013-06-27 22:45:00,
2013-06-27 16:05:00,81.2,63.0,30.02,WSW,246,6.0,10.0,54,0.00,,,0.00,Wunderground v.1.15,2013-06-27 23:05:00,
2013-06-27 16:10:00,81.3,62.5,30.02,SW,233,6.0,6.0,53,0.00,,,0.00,Wunderground v.1.15,2013-06-27 23:10:00,
2013-06-27 16:15:00,81.5,62.7,30.02,WSW,240,6.0,6.0,53,0.00,,,0.00,Wunderground v.1.15,2013-06-27 23:15:00,
2013-06-27 16:25:00,80.9,62.7,30.02,SSW,207,6.0,6.0,54,0.00,,,0.00,Wunderground v.1.15,2013-06-27 23:25:00,
2013-06-27 16:30:00,81.2,62.4,30.02,West,259,5.0,6.0,53,0.00,,,0.00,Wunderground v.1.15,2013-06-27 23:30:00,
2013-06-27 16:35:00,81.6,62.8,30.02,SW,223,5.0,6.0,53,0.00,,,0.00,Wunderground v.1.15,2013-06-27 23:35:00,
2013-06-27 16:45:00,82.3,62.4,30.02,WSW,256,5.0,5.0,51,0.00,,,0.00,Wunderground v.1.15,2013-06-27 23:45:00,
2013-06-27 16:55:00,81.8,62.5,30.02,West,264,6.0,7.0,52,0.00,,,0.00,Wunderground v.1.15,2013-06-27 23:55:00,
2013-06-27 17:05:00,81.5,62.7,30.02,SSW,207,5.0,11.0,53,0.00,,,0.00,Wunderground v.1.15,2013-06-28 00:05:00,
2013-06-27 17:15:00,81.7,62.4,30.02,SSE,157,5.0,11.0,52,0.00,,,0.00,Wunderground v.1.15,2013-06-28 00:15:00,
2013-06-27 17:20:00,81.7,62.4,30.01,SW,225,5.0,11.0,52,0.00,,,0.00,Wunderground v.1.15,2013-06-28 00:20:00,
2013-06-27 17:30:00,81.3,62.0,30.01,SW,227,4.0,11.0,52,0.00,,,0.00,Wunderground v.1.15,2013-06-28 00:30:00,
2013-06-27 17:40:00,81.1,61.3,30.01,WSW,255,4.0,11.0,51,0.00,,,0.00,Wunderground v.1.15,2013-06-28 00:40:00,
2013-06-27 17:45:00,80.3,61.6,30.01,SSW,207,5.0,11.0,53,0.00,,,0.00,Wunderground v.1.15,2013-06-28 00:45:00,
2013-06-27 17:50:00,80.5,61.3,30.01,WSW,239,4.0,11.0,52,0.00,,,0.00,Wunderground v.1.15,2013-06-28 00:50:00,
2013-06-27 17:55:00,80.3,61.6,30.01,SSW,205,4.0,11.0,53,0.00,,,0.00,Wunderground v.1.15,2013-06-28 00:55:00,
2013-06-27 18:05:00,80.7,61.4,30.00,SW,216,4.0,11.0,52,0.00,,,0.00,Wunderground v.1.15,2013-06-28 01:05:00,
2013-06-27 18:15:00,80.3,61.6,30.00,WSW,250,4.0,11.0,53,0.00,,,0.00,Wunderground v.1.15,2013-06-28 01:15:00,
2013-06-27 18:20:00,80.3,61.6,30.00,SW,231,4.0,11.0,53,0.00,,,0.00,Wunderground v.1.15,2013-06-28 01:20:00,
2013-06-27 18:25:00,80.4,61.7,30.00,SW,228,4.0,11.0,53,0.00,,,0.00,Wunderground v.1.15,2013-06-28 01:25:00,
2013-06-27 18:35:00,80.2,61.5,30.00,SW,219,4.0,11.0,53,0.00,,,0.00,Wunderground v.1.15,2013-06-28 01:35:00,
2013-06-27 18:45:00,79.0,60.9,30.00,West,264,4.0,11.0,54,0.00,,,0.00,Wunderground v.1.15,2013-06-28 01:45:00,
2013-06-27 18:55:00,77.4,60.5,30.00,SSW,199,3.0,11.0,56,0.00,,,0.00,Wunderground v.1.15,2013-06-28 01:55:00,
2013-06-27 19:05:00,76.8,60.4,30.00,SSW,200,3.0,11.0,57,0.00,,,0.00,Wunderground v.1.15,2013-06-28 02:05:00,
2013-06-27 19:10:00,76.9,60.5,30.00,SW,232,2.0,4.0,57,0.00,,,0.00,Wunderground v.1.15,2013-06-28 02:10:00,
2013-06-27 19:20:00,76.3,60.4,30.00,WSW,251,4.0,4.0,58,0.00,,,0.00,Wunderground v.1.15,2013-06-28 02:20:00,
2013-06-27 19:25:00,75.6,60.3,30.00,SW,230,4.0,4.0,59,0.00,,,0.00,Wunderground v.1.15,2013-06-28 02:25:00,
2013-06-27 19:35:00,75.3,60.5,30.00,WSW,246,2.0,3.0,60,0.00,,,0.00,Wunderground v.1.15,2013-06-28 02:35:00,
2013-06-27 19:40:00,74.7,59.9,30.00,WSW,238,2.0,2.0,60,0.00,,,0.00,Wunderground v.1.15,2013-06-28 02:40:00,
2013-06-27 19:50:00,73.9,60.1,30.00,WSW,238,1.0,1.0,62,0.00,,,0.00,Wunderground v.1.15,2013-06-28 02:50:00,
2013-06-27 19:55:00,73.7,59.9,30.00,WSW,238,2.0,3.0,62,0.00,,,0.00,Wunderground v.1.15,2013-06-28 02:55:00,
2013-06-27 20:00:00,73.5,60.1,30.00,WSW,238,2.0,2.0,63,0.00,,,0.00,Wunderground v.1.15,2013-06-28 03:00:00,
2013-06-27 20:05:00,73.0,59.7,30.00,WSW,238,2.0,3.0,63,0.00,,,0.00,Wunderground v.1.15,2013-06-28 03:05:00,
2013-06-27 20:15:00,71.9,59.9,30.00,WSW,247,2.0,6.0,66,0.00,,,0.00,Wunderground v.1.15,2013-06-28 03:15:00,
2013-06-27 20:25:00,71.2,59.7,30.00,WSW,247,1.0,6.0,67,0.00,,,0.00,Wunderground v.1.15,2013-06-28 03:25:00,
2013-06-27 20:35:00,70.3,59.2,30.00,WSW,244,1.0,6.0,68,0.00,,,0.00,Wunderground v.1.15,2013-06-28 03:35:00,
2013-06-27 20:40:00,69.9,59.3,30.00,WSW,244,1.0,1.0,69,0.00,,,0.00,Wunderground v.1.15,2013-06-28 03:40:00,
2013-06-27 20:50:00,69.3,59.1,30.00,WSW,244,0.0,6.0,70,0.00,,,0.00,Wunderground v.1.15,2013-06-28 03:50:00,
2013-06-27 21:00:00,68.6,58.8,30.01,WSW,245,0.0,6.0,71,0.00,,,0.00,Wunderground v.1.15,2013-06-28 04:00:00,
2013-06-27 21:05:00,68.3,58.9,30.00,WSW,245,0.0,6.0,72,0.00,,,0.00,Wunderground v.1.15,2013-06-28 04:05:00,
2013-06-27 21:10:00,68.0,59.0,30.01,WSW,245,0.0,6.0,73,0.00,,,0.00,Wunderground v.1.15,2013-06-28 04:10:00,
2013-06-27 21:15:00,67.7,58.7,30.01,WSW,245,0.0,6.0,73,0.00,,,0.00,Wunderground v.1.15,2013-06-28 04:15:00,
2013-06-27 21:25:00,67.1,58.5,30.01,WSW,245,0.0,6.0,74,0.00,,,0.00,Wunderground v.1.15,2013-06-28 04:25:00,
2013-06-27 21:35:00,66.6,58.1,30.01,WSW,244,0.0,6.0,74,0.00,,,0.00,Wunderground v.1.15,2013-06-28 04:35:00,
2013-06-27 21:45:00,66.4,58.2,30.01,WSW,244,0.0,6.0,75,0.00,,,0.00,Wunderground v.1.15,2013-06-28 04:45:00,
2013-06-27 21:50:00,66.3,58.1,30.01,WSW,244,0.0,6.0,75,0.00,,,0.00,Wunderground v.1.15,2013-06-28 04:50:00,
2013-06-27 22:00:00,66.1,58.3,30.02,WSW,244,0.0,6.0,76,0.00,,,0.00,Wunderground v.1.15,2013-06-28 05:00:00,
2013-06-27 22:05:00,65.9,58.1,30.02,WSW,245,0.0,6.0,76,0.00,,,0.00,Wunderground v.1.15,2013-06-28 05:05:00,
2013-06-27 22:10:00,65.8,58.4,30.02,WSW,244,0.0,0.0,77,0.00,,,0.00,Wunderground v.1.15,2013-06-28 05:10:00,
2013-06-27 22:15:00,65.6,58.2,30.02,WSW,245,0.0,0.0,77,0.00,,,0.00,Wunderground v.1.15,2013-06-28 05:15:00,
2013-06-27 22:20:00,65.4,58.0,30.02,WSW,244,0.0,0.0,77,0.00,,,0.00,Wunderground v.1.15,2013-06-28 05:20:00,
2013-06-27 22:30:00,65.0,58.0,30.02,WSW,244,0.0,0.0,78,0.00,,,0.00,Wunderground v.1.15,2013-06-28 05:30:00,
2013-06-27 22:35:00,64.8,58.1,30.02,ENE,77,0.0,0.0,79,0.00,,,0.00,Wunderground v.1.15,2013-06-28 05:35:00,
2013-06-27 22:40:00,64.7,58.0,30.02,ENE,77,0.0,0.0,79,0.00,,,0.00,Wunderground v.1.15,2013-06-28 05:40:00,
2013-06-27 22:45:00,64.5,57.8,30.02,ENE,77,0.0,0.0,79,0.00,,,0.00,Wunderground v.1.15,2013-06-28 05:45:00,
2013-06-27 22:50:00,64.3,57.6,30.02,ENE,77,0.0,0.0,79,0.00,,,0.00,Wunderground v.1.15,2013-06-28 05:50:00,
2013-06-27 22:55:00,64.1,57.5,30.02,ENE,77,0.0,0.0,79,0.00,,,0.00,Wunderground v.1.15,2013-06-28 05:55:00,
2013-06-27 23:05:00,63.6,57.3,30.02,ENE,77,0.0,0.0,80,0.00,,,0.00,Wunderground v.1.15,2013-06-28 06:05:00,
2013-06-27 23:15:00,63.3,57.4,30.02,ENE,77,0.0,0.0,81,0.00,,,0.00,Wunderground v.1.15,2013-06-28 06:15:00,
2013-06-27 23:25:00,63.2,57.6,30.02,ENE,77,0.0,0.0,82,0.00,,,0.00,Wunderground v.1.15,2013-06-28 06:25:00,
2013-06-27 23:35:00,63.8,57.9,30.02,ENE,70,1.0,1.0,81,0.00,,,0.00,Wunderground v.1.15,2013-06-28 06:35:00,
2013-06-27 23:45:00,64.1,58.1,30.02,ENE,75,0.0,0.0,81,0.00,,,0.00,Wunderground v.1.15,2013-06-28 06:45:00,
2013-06-27 23:50:00,64.2,57.9,30.02,ENE,75,0.0,0.0,80,0.00,,,0.00,Wunderground v.1.15,2013-06-28 06:50:00,
2013-06-27 23:55:00,64.4,58.1,30.02,NE,46,0.0,0.0,80,0.00,,,0.00,Wunderground v.1.15,2013-06-28 06:55:00,